sat.trackr.live / text

‹ back to catalog

GUOWANG TEST OBJECT B

NORAD 69321 · 2026-120B

PAYLOAD ACTIVE UNKNOWN

§ Identity

Operator
Country
PRC
Launch date
2026-05-30
Launch site
XICLF
Launch vehicle
Mass (kg)
RCS (m²)

External: N2YO · Heavens-Above · Gunter

§ Orbital elements

Epoch: 2026-09-20T04:05:10.513248Z

Period
94.00 min
Inclination
54.9975°
Eccentricity
0.0008154
Mean motion
15.31888715 rev/d
Perigee alt
464.6 km
Apogee alt
475.8 km
Semi-major
6,848.3 km
B*
1.8988e-4
RAAN
321.4687°
Arg perigee
172.3892°
Mean anomaly
187.7259°
Rev number
1,729

§ Raw data

GUOWANG TEST OBJECT B1 69321U 26120B   26263.17026057  .00005567  00000+0  18988-3 0  99982 69321  54.9975 321.4687 0008154 172.3892 187.7259 15.31888715 17298

JSON: /api/v1/satellites/69321 · /tle

For live sub-satellite position, see the globe view (requires WebGL).

§ Visibility from observer

Set your observer location to see the next 7 days of passes ≥ 10°. The values pass through the URL so the page stays shareable.

No JS? Fill the form by hand. The geolocation button needs JavaScript.